| time (UTC) | temp F | wind direction | speed MPH | gust MPH | rain 1hr in | rain 24hr in | rain mn in | humidity % | barometer mb |
| 20260504191518 | 69 | 88 | 15.0 | 22.0 | 0.00 | 0.00 | 0.00 | 41 | 1009.7 |
| 20260504190013 | 68 | 98 | 10.0 | 18.0 | 0.00 | 0.00 | 0.00 | 42 | 1009.8 |
| 20260504184512 | 68 | 93 | 9.0 | 23.0 | 0.00 | 0.00 | 0.00 | 46 | 1009.9 |
| 20260504183006 | 67 | 67 | 14.0 | 21.0 | 0.00 | 0.00 | 0.00 | 45 | 1009.9 |
| 20260504181501 | 67 | 92 | 12.0 | 23.0 | 0.00 | 0.00 | 0.00 | 42 | 1009.9 |
| 20260504180155 | 66 | 69 | 13.0 | 21.0 | 0.00 | 0.00 | 0.00 | 45 | 1010.0 |
| 20260504174554 | 67 | 85 | 10.0 | 22.0 | 0.00 | 0.00 | 0.00 | 43 | 1009.8 |
| 20260504173059 | 66 | 94 | 13.0 | 22.0 | 0.00 | 0.00 | 0.00 | 44 | 1009.7 |
| 20260504171545 | 65 | 103 | 14.0 | 29.0 | 0.00 | 0.00 | 0.00 | 46 | 1009.8 |
| 20260504140112 | 47 | 317 | 2.0 | 6.0 | 0.00 | 0.00 | 0.00 | 88 | 1009.8 |
| 20260504081558 | 47 | 293 | 0.0 | 2.0 | 0.00 | 0.00 | 0.00 | 87 | 1008.3 |
| 20260504050104 | 54 | 254 | 1.0 | 4.0 | 0.00 | 0.00 | 0.00 | 79 | 1008.1 |
| 20260504044537 | 55 | 260 | 0.0 | 2.0 | 0.00 | 0.00 | 0.00 | 77 | 1008.1 |
| 20260504043037 | 56 | 311 | 0.0 | 1.0 | 0.00 | 0.00 | 0.00 | 75 | 1008.0 |
| 20260504041537 | 57 | 311 | 0.0 | 3.0 | 0.00 | 0.00 | 0.00 | 68 | 1008.0 |
| 20260504040040 | 58 | 267 | 0.0 | 2.0 | 0.00 | 0.00 | 0.00 | 67 | 1007.9 |
| 20260504034546 | 60 | 267 | 0.0 | 2.0 | 0.00 | 0.00 | 0.00 | 64 | 1007.3 |
| 20260504033035 | 61 | 267 | 0.0 | 2.0 | 0.00 | 0.00 | 0.00 | 62 | 1007.6 |
| 20260504031545 | 63 | 270 | 1.0 | 2.0 | 0.00 | 0.00 | 0.00 | 60 | 1007.6 |
| 20260504030040 | 65 | 327 | 1.0 | 3.0 | 0.00 | 0.00 | 0.00 | 56 | 1007.5 |
| 20260504024538 | 67 | 333 | 2.0 | 5.0 | 0.00 | 0.00 | 0.00 | 51 | 1007.6 |
| 20260504023033 | 69 | 279 | 2.0 | 4.0 | 0.00 | 0.00 | 0.00 | 49 | 1007.5 |
| 20260504021532 | 71 | 304 | 2.0 | 4.0 | 0.00 | 0.00 | 0.00 | 46 | 1007.5 |
| 20260504020038 | 72 | 275 | 0.0 | 3.0 | 0.00 | 0.00 | 0.00 | 43 | 1007.5 |
| 20260504014529 | 74 | 221 | 0.0 | 4.0 | 0.00 | 0.00 | 0.00 | 37 | 1007.5 |
| 20260504013029 | 75 | 215 | 3.0 | 8.0 | 0.00 | 0.00 | 0.00 | 36 | 1007.6 |
| 20260504011527 | 75 | 28 | 2.0 | 6.0 | 0.00 | 0.00 | 0.00 | 35 | 1007.8 |
| 20260504010025 | 75 | 144 | 2.0 | 4.0 | 0.00 | 0.00 | 0.00 | 37 | 1008.0 |
| 20260504004525 | 76 | 238 | 2.0 | 6.0 | 0.00 | 0.00 | 0.00 | 36 | 1008.0 |
| 20260504003022 | 77 | 307 | 1.0 | 4.0 | 0.00 | 0.00 | 0.00 | 35 | 1008.3 |
| 20260504001521 | 78 | 108 | 4.0 | 8.0 | 0.00 | 0.00 | 0.00 | 31 | 1008.5 |
| 20260504000021 | 78 | 220 | 1.0 | 6.0 | 0.00 | 0.00 | 0.00 | 30 | 1008.5 |
| 20260503234524 | 79 | 142 | 1.0 | 10.0 | 0.00 | 0.00 | 0.00 | 32 | 1008.6 |
| 20260503233018 | 78 | 84 | 1.0 | 10.0 | 0.00 | 0.00 | 0.00 | 30 | 1008.9 |
| 20260503231519 | 78 | 125 | 1.0 | 8.0 | 0.00 | 0.00 | 0.00 | 29 | 1009.1 |
| 20260503230015 | 79 | 331 | 2.0 | 8.0 | 0.00 | 0.00 | 0.00 | 28 | 1009.4 |
| 20260503224511 | 78 | 202 | 3.0 | 7.0 | 0.00 | 0.00 | 0.00 | 28 | 1009.7 |
| 20260503223020 | 78 | 96 | 2.0 | 8.0 | 0.00 | 0.00 | 0.00 | 30 | 1010.0 |
| 20260503221504 | 76 | 322 | 1.0 | 7.0 | 0.00 | 0.00 | 0.00 | 32 | 1010.2 |
| 20260503220002 | 75 | 136 | 3.0 | 8.0 | 0.00 | 0.00 | 0.00 | 35 | 1010.5 |
| 20260503214559 | 75 | 79 | 2.0 | 8.0 | 0.00 | 0.00 | 0.00 | 31 | 1010.7 |
| 20260503213123 | 73 | 75 | 2.0 | 9.0 | 0.00 | 0.00 | 0.00 | 39 | 1011.0 |
| 20260503211616 | 72 | 119 | 5.0 | 9.0 | 0.00 | 0.00 | 0.00 | 41 | 1011.1 |
| 20260503210045 | 71 | 116 | 7.0 | 10.0 | 0.00 | 0.00 | 0.00 | 41 | 1011.5 |
| 20260503204559 | 71 | 102 | 8.0 | 11.0 | 0.00 | 0.00 | 0.00 | 43 | 1011.8 |
| 20260503203040 | 69 | 108 | 7.0 | 9.0 | 0.00 | 0.00 | 0.00 | 48 | 1011.9 |
| 20260503201536 | 68 | 126 | 7.0 | 10.0 | 0.00 | 0.00 | 0.00 | 49 | 1012.1 |
| 20260503200131 | 68 | 107 | 8.0 | 10.0 | 0.00 | 0.00 | 0.00 | 50 | 1012.4 |
| 20260503194528 | 68 | 106 | 9.0 | 10.0 | 0.00 | 0.00 | 0.00 | 54 | 1012.7 |
| 20260503193023 | 67 | 104 | 9.0 | 10.0 | 0.00 | 0.00 | 0.00 | 55 | 1012.9 |